Saint Michaels, AZ

11:45 PM MST on February 06, 2016 (GMT -0700)
Window Rock

Weather History for KRQE - January, 2013

Change the Weather History Date:

Saturday, January 12, 2013

  Actual Average Record
Temperature  
Mean Temperature 0 °F -  
Max Temperature 18 °F 41 °F 59 °F (1948)
Min Temperature -17 °F 13 °F -20 °F (1963)
Degree Days  
Heating Degree Days 64    
Moisture  
Dew Point -11 °F    
Average Humidity 66    
Maximum Humidity 83    
Minimum Humidity 36    
Precipitation  
Precipitation 0.00 in - - ()
Sea Level Pressure  
Sea Level Pressure 30.11 in    
Wind  
Wind Speed 1 mph (West)    
Max Wind Speed 9 mph    
Max Gust Speed -    
Visibility 10 miles    
Events      
Averages and records for this station are not official NWS values.
T = Trace of Precipitation, MM = Missing Value Source: NWS Daily Summary

Daily Weather History Graph

Daily Weather History Graph

Search for Another Location

Airport or City:

Trip Planner

Search our weather history database for the weather conditions in past years. The results will help you decide how hot, cold, wet, or windy it might be!

Date:

Astronomy

Jan. 12, 2013 Rise Set
Actual Time 7:25 AM MST 5:23 PM MST
Civil Twilight 6:58 AM MST 5:51 PM MST
Nautical Twilight 6:26 AM MST 6:23 PM MST
Astronomical Twilight 5:55 AM MST 6:53 PM MST
Moon 7:50 AM MST (1/12) 6:52 PM MST (1/12)
Length of Visible Light 10h 53m
Length of Day
9h 57m
New Moon, 1% of the Moon is Illuminated
Jan 12
New Moon
Jan 18
First Quarter
Jan 26
Full
Feb 3
Last Quarter
Feb 10
New

Hourly Weather History & Observations

Time (MST) Temp. Windchill Dew Point Humidity Pressure Visibility Wind Dir Wind Speed Gust Speed Precip Events Conditions
12:53 AM -11.0 °F - -15.0 °F 83% 30.03 in 10.0 mi Calm Calm - N/A   Clear
1:53 AM -11.9 °F - -16.1 °F 82% 30.04 in 10.0 mi Calm Calm - N/A   Clear
2:53 AM -11.9 °F - -16.1 °F 82% 30.04 in 10.0 mi Calm Calm - N/A   Clear
3:53 AM -11.9 °F - -17.0 °F 78% 30.03 in 10.0 mi Calm Calm - N/A   Overcast
4:53 AM -14.1 °F - -18.9 °F 79% 30.02 in 10.0 mi Calm Calm - N/A   Clear
5:53 AM -16.1 °F - -20.0 °F 82% 30.09 in 10.0 mi Calm Calm - N/A   Clear
6:53 AM -17.0 °F - -22.0 °F 78% 30.16 in 10.0 mi Calm Calm - N/A   Clear
7:53 AM -17.0 °F - -22.0 °F 78% 30.19 in 10.0 mi Calm Calm - N/A   Clear
8:53 AM -9.9 °F - -15.0 °F 78% 30.21 in 10.0 mi Calm Calm - N/A   Clear
9:53 AM -0.9 °F - -8.0 °F 72% 30.17 in 10.0 mi Calm Calm - N/A   Clear
10:53 AM 10.0 °F - -4.0 °F 53% 30.09 in 10.0 mi Calm Calm - N/A   Clear
11:53 AM 17.1 °F 11.7 °F -0.9 °F 45% 30.04 in 10.0 mi West 3.5 mph - N/A   Mostly Cloudy
12:53 PM 17.1 °F 5.8 °F -4.0 °F 39% 30.04 in 10.0 mi West 9.2 mph - 0.00 in   Overcast
1:53 PM 18.0 °F 7.7 °F -5.1 °F 36% 30.03 in 10.0 mi SW 8.1 mph - 0.00 in   Mostly Cloudy
2:53 PM 18.0 °F 12.7 °F -5.1 °F 36% 30.04 in 10.0 mi WSW 3.5 mph - 0.00 in   Overcast
3:53 PM 16.0 °F 4.4 °F -5.1 °F 39% 30.06 in 10.0 mi WSW 9.2 mph - N/A   Overcast
4:53 PM 16.0 °F 6.3 °F -6.0 °F 38% 30.08 in 10.0 mi WNW 6.9 mph - N/A   Overcast
5:53 PM 12.0 °F - -6.0 °F 44% 30.13 in 10.0 mi Calm Calm - N/A   Clear
6:53 PM 5.0 °F - -6.0 °F 61% 30.17 in 10.0 mi North - - N/A   Partly Cloudy
7:53 PM -0.9 °F - -8.0 °F 72% 30.22 in 10.0 mi Calm Calm - N/A   Clear
8:53 PM -4.0 °F - -9.0 °F 79% 30.21 in 10.0 mi Calm Calm - N/A   Clear
9:53 PM -8.0 °F -16.9 °F -11.9 °F 83% 30.20 in 10.0 mi NNE 3.5 mph - N/A   Clear
10:53 PM -9.0 °F - -13.0 °F 83% 30.15 in 10.0 mi Calm Calm - N/A   Mostly Cloudy
11:53 PM -6.0 °F - -11.0 °F 79% 30.11 in 10.0 mi Calm Calm - N/A   Mostly Cloudy